This is the latest recevied weather packets stored in our database for station/object WY7ATH-2. If no packets are shown the sender has not sent any weather packets the latest 10 day(s).
| Time | Temp. | Humidity | Pressure | Rain* | Wind** | Luminosity | Snow |
|---|---|---|---|---|---|---|---|
| 1777436721 | 0° C | - | - | 0 mm | 0 m/s | - | - |
| 1777435527 | 0.56° C | - | - | 0 mm | 0 m/s | - | - |
| 1777434930 | 0.56° C | - | - | 0 mm | 0 m/s | - | - |
| 1777434333 | 0° C | - | - | 0 mm | 0 m/s | - | - |
| 1777431942 | 0.56° C | - | - | 0 mm | 0 m/s | - | - |
| 1777430747 | 0.56° C | - | - | 4.32 mm | 0 m/s | - | - |
| 1777430147 | 1.11° C | - | - | 4.32 mm | 0 m/s | - | - |
| 1777429550 | 0.56° C | - | - | 4.32 mm | 0 m/s | - | - |
| 1777428953 | 0.56° C | - | - | 4.32 mm | 0 m/s | - | - |
| 1777427759 | 1.11° C | - | - | 10.67 mm | 0 m/s | - | - |
| 1777426563 | 2.22° C | - | - | 10.67 mm | 0 m/s | - | - |
| 1777425965 | 3.33° C | - | - | 10.67 mm | 0 m/s | - | - |
| 1777425368 | 3.89° C | - | - | 10.67 mm | 0 m/s | - | - |
| 1777424771 | 4.44° C | - | - | 10.67 mm | 0 m/s | - | - |
| 1777422977 | 5.56° C | - | - | 12.45 mm | 0 m/s | - | - |
| 1777421187 | 6.67° C | - | - | 12.45 mm | 0 m/s | - | - |
| 1777419992 | 6.67° C | - | - | 13.46 mm | 0 m/s | - | - |
| 1777418795 | 7.22° C | - | - | 13.46 mm | 0 m/s | - | - |
| 1777417601 | 7.22° C | - | - | 13.46 mm | 0 m/s | - | - |
| 1777417004 | 6.67° C | - | - | 17.02 mm | 0 m/s | - | - |
| 1777416407 | 8.33° C | - | - | 17.02 mm | 0 m/s | - | - |
| 1777415210 | 6.11° C | - | - | 17.02 mm | 0 m/s | - | - |
| 1777414613 | 8.33° C | - | - | 17.02 mm | 0 m/s | - | - |
| 1777413419 | 8.89° C | - | - | 16.51 mm | 0 m/s | - | - |
| 1777412822 | 10° C | - | - | 16.51 mm | 0 m/s | - | - |
* Rain latest hour (hover to see other rain measurements)
** Current wind speed in m/s (hover to see current wind gust speed)